Location: Bottom School (historical)
(37.9078°N, 89.3593°W)
Time: 21:35:52
(UTC+00:00)

UNISAT 6 - Pass Details

Date: 07 April 2023
Orbit: 599 x 679 km, 97.7° (Epoch: 08 June)

Event Time Altitude Azimuth Distance (km) Brightness Sun altitude
Rises 10:49:09 0° 169° (S) 2,925 ? -9.5°
Reaches altitude 10° 10:51:19 10° 170° (S) 2,033 ? -9.0°
Maximum altitude 10:55:46 82° 257° (WSW) 668 ? -8.2°
Drops below altitude 10° 11:00:22 10° 346° (NNW) 2,097 ? -7.3°
Sets 11:02:38 0° 347° (NNW) 3,024 ? -6.9°
